Time,TemperatureF,DewpointF,PressureIn,WindDirection,WindDirectionDegrees,WindSpeedMPH,WindSpeedGustMPH,Humidity,HourlyPrecipIn,Conditions,Clouds,dailyrainin,SolarRadiationWatts/m^2,SoftwareType,DateUTC
2013-05-08 00:04:00,63.6,57.7,30.02,West,270,3.0,6.0,81,0.00,RA,,0.00,0.0,WeatherDisplay:10.37,2013-05-07 22:04:00,
2013-05-08 00:09:00,63.6,57.7,30.02,WNW,285,2.0,5.0,81,0.00,BKN,,0.00,0.0,WeatherDisplay:10.37,2013-05-07 22:09:00,
2013-05-08 00:14:00,63.6,57.7,30.02,WNW,290,2.0,5.0,81,0.00,BKN,,0.00,0.0,WeatherDisplay:10.37,2013-05-07 22:14:00,
2013-05-08 00:19:00,63.5,57.6,30.02,NNW,339,3.5,3.5,81,0.00,BKN,,0.00,0.0,WeatherDisplay:10.37,2013-05-07 22:19:00,
2013-05-08 00:24:00,63.3,57.7,30.02,NNW,336,1.0,4.0,82,0.00,FEW,,0.00,0.0,WeatherDisplay:10.37,2013-05-07 22:24:00,
2013-05-08 00:29:00,63.2,57.6,30.02,NW,325,1.0,3.0,82,0.00,FEW,,0.00,0.0,WeatherDisplay:10.37,2013-05-07 22:29:00,
2013-05-08 00:34:00,63.2,57.6,30.02,NW,317,1.0,3.0,82,0.00,FEW,,0.00,0.0,WeatherDisplay:10.37,2013-05-07 22:34:00,
2013-05-08 00:39:00,63.2,57.6,30.02,NW,324,2.0,3.0,82,0.00,FEW,,0.00,0.0,WeatherDisplay:10.37,2013-05-07 22:39:00,
2013-05-08 00:44:00,63.1,57.5,30.01,NW,323,4.0,4.0,82,0.00,FEW,,0.00,0.0,WeatherDisplay:10.37,2013-05-07 22:44:00,
2013-05-08 00:49:00,63.1,57.5,30.01,NW,319,2.0,4.0,82,0.00,FEW,,0.00,0.0,WeatherDisplay:10.37,2013-05-07 22:49:00,
2013-05-08 00:54:00,63.1,57.9,30.01,WNW,299,3.5,3.5,83,0.00,FEW,,0.00,0.0,WeatherDisplay:10.37,2013-05-07 22:54:00,
2013-05-08 00:59:00,63.2,57.9,30.01,West,275,3.5,3.5,83,0.00,FEW,,0.00,0.0,WeatherDisplay:10.37,2013-05-07 22:59:00,
2013-05-08 01:04:00,63.2,57.9,30.01,WNW,283,3.0,5.0,83,0.00,FEW,,0.00,0.0,WeatherDisplay:10.37,2013-05-07 23:04:00,
2013-05-08 01:09:00,63.2,57.6,30.01,WSW,245,3.5,3.5,82,0.00,FEW,,0.00,0.0,WeatherDisplay:10.37,2013-05-07 23:09:00,
2013-05-08 01:14:00,63.3,57.7,30.01,WSW,243,3.5,3.5,82,0.00,FEW,,0.00,0.0,WeatherDisplay:10.37,2013-05-07 23:14:00,
2013-05-08 01:19:00,63.5,57.9,30.01,WSW,239,3.0,6.0,82,0.00,FEW,,0.00,0.0,WeatherDisplay:10.37,2013-05-07 23:19:00,
2013-05-08 01:24:00,63.6,57.7,30.00,WSW,242,3.0,5.0,81,0.00,FEW,,0.00,0.0,WeatherDisplay:10.37,2013-05-07 23:24:00,
2013-05-08 01:29:00,63.5,57.6,30.00,SW,227,4.6,4.6,81,0.00,FEW,,0.00,0.0,WeatherDisplay:10.37,2013-05-07 23:29:00,
2013-05-08 01:34:00,63.5,57.2,30.00,WSW,242,1.0,4.0,80,0.00,FEW,,0.00,0.0,WeatherDisplay:10.37,2013-05-07 23:34:00,
2013-05-08 01:39:00,63.6,57.7,30.00,WSW,244,2.0,2.0,81,0.00,FEW,,0.00,0.0,WeatherDisplay:10.37,2013-05-07 23:39:00,
2013-05-08 01:44:00,63.7,57.7,30.00,WSW,244,0.0,3.0,81,0.00,FEW,,0.00,0.0,WeatherDisplay:10.37,2013-05-07 23:44:00,
2013-05-08 01:49:00,63.6,57.7,30.00,WSW,239,1.0,2.0,81,0.00,FEW,,0.00,0.0,WeatherDisplay:10.37,2013-05-07 23:49:00,
2013-05-08 01:54:00,63.3,57.4,30.00,East,97,0.0,2.0,81,0.00,FEW,,0.00,0.0,WeatherDisplay:10.37,2013-05-07 23:54:00,
2013-05-08 01:59:00,63.1,57.5,30.00,East,94,1.0,1.0,82,0.00,FEW,,0.00,0.0,WeatherDisplay:10.37,2013-05-07 23:59:00,
2013-05-08 02:04:00,63.0,57.4,30.00,East,94,0.0,0.0,82,0.00,FEW,,0.00,0.0,WeatherDisplay:10.37,2013-05-08 00:04:00,
2013-05-08 02:09:00,62.9,57.3,30.00,East,94,0.0,0.0,82,0.00,FEW,,0.00,0.0,WeatherDisplay:10.37,2013-05-08 00:09:00,
2013-05-08 02:14:00,62.8,57.6,29.99,East,94,0.0,1.0,83,0.00,FEW,,0.00,0.0,WeatherDisplay:10.37,2013-05-08 00:14:00,
2013-05-08 02:19:00,62.7,57.5,29.99,East,94,2.0,2.0,83,0.00,FEW,,0.00,0.0,WeatherDisplay:10.37,2013-05-08 00:19:00,
2013-05-08 02:24:00,62.7,57.5,29.99,East,94,1.2,0.0,83,0.00,FEW,,0.00,0.0,WeatherDisplay:10.37,2013-05-08 00:24:00,
2013-05-08 02:29:00,62.7,57.8,29.99,East,97,0.0,3.0,84,0.00,FEW,,0.00,0.0,WeatherDisplay:10.37,2013-05-08 00:29:00,
2013-05-08 02:34:00,62.7,57.8,29.99,East,94,2.3,2.3,84,0.00,FEW,,0.00,0.0,WeatherDisplay:10.37,2013-05-08 00:34:00,
2013-05-08 02:39:00,62.6,57.7,29.99,East,96,3.5,3.5,84,0.00,FEW,,0.00,0.0,WeatherDisplay:10.37,2013-05-08 00:39:00,
2013-05-08 02:44:00,62.5,57.6,29.98,East,92,1.0,4.0,84,0.00,FEW,,0.00,0.0,WeatherDisplay:10.37,2013-05-08 00:44:00,
2013-05-08 02:49:00,62.5,57.6,29.98,SSW,193,1.2,0.0,84,0.00,FEW,,0.00,0.0,WeatherDisplay:10.37,2013-05-08 00:49:00,
2013-05-08 02:54:00,62.4,57.5,29.98,ESE,114,1.0,2.0,84,0.00,FEW,,0.00,0.0,WeatherDisplay:10.37,2013-05-08 00:54:00,
2013-05-08 02:59:00,62.3,57.4,29.98,ESE,102,1.0,3.0,84,0.00,FEW,,0.00,0.0,WeatherDisplay:10.37,2013-05-08 00:59:00,
2013-05-08 03:04:00,62.2,57.6,29.98,ESE,103,3.5,3.5,85,0.00,FEW,,0.00,0.0,WeatherDisplay:10.37,2013-05-08 01:04:00,
2013-05-08 03:09:00,62.1,57.5,29.98,East,96,2.0,5.0,85,0.00,FEW,,0.00,0.0,WeatherDisplay:10.37,2013-05-08 01:09:00,
2013-05-08 03:14:00,62.1,57.5,29.98,East,94,1.0,5.0,85,0.00,FEW,,0.00,0.0,WeatherDisplay:10.37,2013-05-08 01:14:00,
2013-05-08 03:19:00,62.1,57.5,29.98,East,84,2.3,2.3,85,0.00,FEW,,0.00,0.0,WeatherDisplay:10.37,2013-05-08 01:19:00,
2013-05-08 03:24:00,62.1,57.5,29.98,ENE,61,1.2,1.2,85,0.00,FEW,,0.00,0.0,WeatherDisplay:10.37,2013-05-08 01:24:00,
2013-05-08 03:29:00,62.1,57.9,29.98,ENE,71,2.3,0.0,86,0.00,FEW,,0.00,0.0,WeatherDisplay:10.37,2013-05-08 01:29:00,
2013-05-08 03:34:00,62.1,57.9,29.98,ENE,78,0.0,1.0,86,0.00,FEW,,0.00,0.0,WeatherDisplay:10.37,2013-05-08 01:34:00,
2013-05-08 03:39:00,62.1,57.9,29.98,South,184,1.2,0.0,86,0.00,FEW,,0.00,0.0,WeatherDisplay:10.37,2013-05-08 01:39:00,
2013-05-08 03:44:00,62.1,57.9,29.98,WSW,247,1.2,0.0,86,0.00,FEW,,0.00,0.0,WeatherDisplay:10.37,2013-05-08 01:44:00,
2013-05-08 03:49:00,62.1,57.9,29.98,South,184,1.2,1.2,86,0.00,FEW,,0.00,0.0,WeatherDisplay:10.37,2013-05-08 01:49:00,
2013-05-08 03:54:00,62.1,57.8,29.98,SE,127,0.0,1.0,86,0.00,FEW,,0.00,0.0,WeatherDisplay:10.37,2013-05-08 01:54:00,
2013-05-08 03:59:00,62.0,57.8,29.98,SE,138,0.0,0.1,86,0.00,FEW,,0.00,0.0,WeatherDisplay:10.37,2013-05-08 01:59:00,
2013-05-08 04:04:00,62.0,57.7,29.98,North,11,0.0,2.0,86,0.00,FEW,,0.00,0.0,WeatherDisplay:10.37,2013-05-08 02:04:00,
2013-05-08 04:09:00,61.8,57.6,29.98,North,9,0.0,2.0,86,0.00,FEW,,0.00,0.0,WeatherDisplay:10.37,2013-05-08 02:09:00,
2013-05-08 04:14:00,61.7,57.5,29.97,South,173,0.0,0.1,86,0.00,FEW,,0.00,0.0,WeatherDisplay:10.37,2013-05-08 02:14:00,
2013-05-08 04:19:00,61.7,57.5,29.97,SSE,154,0.0,2.0,86,0.00,FEW,,0.00,0.0,WeatherDisplay:10.37,2013-05-08 02:19:00,
2013-05-08 04:24:00,61.6,57.4,29.97,NW,309,0.0,2.0,86,0.00,FEW,,0.00,0.0,WeatherDisplay:10.37,2013-05-08 02:24:00,
2013-05-08 04:29:00,61.6,57.4,29.97,WSW,243,1.2,1.2,86,0.00,FEW,,0.00,0.0,WeatherDisplay:10.37,2013-05-08 02:29:00,
2013-05-08 04:34:00,61.5,57.3,29.97,SW,228,1.0,2.0,86,0.00,FEW,,0.00,0.0,WeatherDisplay:10.37,2013-05-08 02:34:00,
2013-05-08 04:39:00,61.3,57.4,29.97,West,263,1.2,1.2,87,0.00,FEW,,0.00,0.0,WeatherDisplay:10.37,2013-05-08 02:39:00,
2013-05-08 04:44:00,61.2,57.3,29.97,SE,140,2.3,2.3,87,0.00,FEW,,0.00,0.0,WeatherDisplay:10.37,2013-05-08 02:44:00,
2013-05-08 04:49:00,61.1,57.2,29.97,SW,222,0.0,2.0,87,0.00,FEW,,0.00,0.0,WeatherDisplay:10.37,2013-05-08 02:49:00,
2013-05-08 04:54:00,61.1,57.2,29.96,West,263,2.3,2.3,87,0.00,FEW,,0.00,0.0,WeatherDisplay:10.37,2013-05-08 02:54:00,
2013-05-08 04:59:00,61.0,57.1,29.96,WSW,250,2.3,2.3,87,0.00,FEW,,0.00,0.0,WeatherDisplay:10.37,2013-05-08 02:59:00,
2013-05-08 05:04:00,61.0,57.1,29.96,ESE,105,2.3,2.3,87,0.00,FEW,,0.00,0.0,WeatherDisplay:10.37,2013-05-08 03:04:00,
2013-05-08 05:09:00,60.9,57.0,29.96,North,5,3.0,3.0,87,0.00,FEW,,0.00,0.0,WeatherDisplay:10.37,2013-05-08 03:09:00,
2013-05-08 05:14:00,60.9,57.3,29.96,SW,223,2.3,2.3,88,0.00,FEW,,0.00,0.0,WeatherDisplay:10.37,2013-05-08 03:14:00,
2013-05-08 05:20:00,60.8,57.2,29.96,West,270,2.3,2.3,88,0.00,FEW,,0.00,0.0,WeatherDisplay:10.37,2013-05-08 03:20:00,
2013-05-08 05:25:00,60.7,57.1,29.96,SSW,202,1.2,1.2,88,0.00,FEW,,0.00,0.0,WeatherDisplay:10.37,2013-05-08 03:25:00,
2013-05-08 05:30:00,60.6,57.0,29.96,West,275,1.2,1.2,88,0.00,FEW,,0.00,0.0,WeatherDisplay:10.37,2013-05-08 03:30:00,
2013-05-08 05:35:00,60.5,56.9,29.96,South,188,3.5,3.5,88,0.00,FEW,,0.00,0.0,WeatherDisplay:10.37,2013-05-08 03:35:00,
2013-05-08 05:40:00,60.5,56.9,29.96,WSW,246,2.3,2.3,88,0.00,FEW,,0.00,0.0,WeatherDisplay:10.37,2013-05-08 03:40:00,
2013-05-08 05:45:00,60.5,56.9,29.96,WSW,245,3.5,3.5,88,0.00,FEW,,0.00,0.0,WeatherDisplay:10.37,2013-05-08 03:45:00,
2013-05-08 05:50:00,60.4,56.8,29.96,ENE,71,1.2,1.2,88,0.00,FEW,,0.00,0.0,WeatherDisplay:10.37,2013-05-08 03:50:00,
2013-05-08 05:55:00,60.3,56.7,29.96,SSW,196,2.3,2.3,88,0.00,BKN,,0.00,0.0,WeatherDisplay:10.37,2013-05-08 03:55:00,
2013-05-08 06:00:00,60.2,56.6,29.96,SW,236,2.3,2.3,88,0.00,BKN,,0.00,0.0,WeatherDisplay:10.37,2013-05-08 04:00:00,
2013-05-08 06:01:00,60.2,56.6,29.96,WSW,237,2.3,2.3,88,0.00,BKN,,0.00,0.0,WeatherDisplay:10.37,2013-05-08 04:01:00,
2013-05-08 06:06:00,60.2,56.6,29.97,NNE,29,2.3,2.3,88,0.00,BKN,,0.00,7.0,WeatherDisplay:10.37,2013-05-08 04:06:00,
2013-05-08 06:11:00,60.1,56.5,29.97,North,5,3.5,3.5,88,0.00,BKN,,0.00,9.0,WeatherDisplay:10.37,2013-05-08 04:11:00,
2013-05-08 06:16:00,60.1,56.5,29.97,ENE,69,3.5,3.5,88,0.00,BKN,,0.00,14.0,WeatherDisplay:10.37,2013-05-08 04:16:00,
2013-05-08 06:21:00,60.0,56.4,29.97,NNE,17,1.2,1.2,88,0.00,BKN,,0.00,21.0,WeatherDisplay:10.37,2013-05-08 04:21:00,
2013-05-08 06:26:00,60.1,56.5,29.97,East,84,2.0,2.0,88,0.00,BKN,,0.00,26.0,WeatherDisplay:10.37,2013-05-08 04:26:00,
2013-05-08 06:31:00,60.3,56.7,29.97,ESE,111,1.2,1.2,88,0.00,BKN,,0.00,37.0,WeatherDisplay:10.37,2013-05-08 04:31:00,
2013-05-08 06:36:00,60.5,56.9,29.97,SW,221,1.2,1.2,88,0.00,BKN,,0.00,72.0,WeatherDisplay:10.37,2013-05-08 04:36:00,
2013-05-08 06:41:00,60.9,57.0,29.97,NE,45,1.2,1.2,87,0.00,BKN,,0.00,114.0,WeatherDisplay:10.37,2013-05-08 04:41:00,
2013-05-08 06:46:00,61.2,57.3,29.97,NW,311,3.5,3.5,87,0.00,BKN,,0.00,98.0,WeatherDisplay:10.37,2013-05-08 04:46:00,
2013-05-08 06:51:00,61.4,57.5,29.97,East,95,1.2,1.2,87,0.00,BKN,,0.00,42.0,WeatherDisplay:10.37,2013-05-08 04:51:00,
2013-05-08 06:56:00,61.5,57.3,29.97,ENE,71,1.2,1.2,86,0.00,BKN,,0.00,51.0,WeatherDisplay:10.37,2013-05-08 04:56:00,
2013-05-08 07:01:00,61.6,57.4,29.97,North,9,1.2,1.2,86,0.00,BKN,,0.00,60.0,WeatherDisplay:10.37,2013-05-08 05:01:00,
2013-05-08 07:06:00,61.6,57.4,29.98,North,9,0.0,0.0,86,0.00,BKN,,0.00,67.0,WeatherDisplay:10.37,2013-05-08 05:06:00,
2013-05-08 07:11:00,61.8,57.6,29.98,North,9,0.0,0.0,86,0.00,BKN,,0.00,79.0,WeatherDisplay:10.37,2013-05-08 05:11:00,
2013-05-08 07:16:00,61.9,57.3,29.98,North,9,1.2,1.2,85,0.00,BKN,,0.00,102.0,WeatherDisplay:10.37,2013-05-08 05:16:00,
2013-05-08 07:21:00,62.0,57.4,29.98,NW,322,2.3,2.3,85,0.00,BKN,,0.00,79.0,WeatherDisplay:10.37,2013-05-08 05:21:00,
2013-05-08 07:26:00,62.2,57.6,29.98,NW,322,2.3,2.3,85,0.00,BKN,,0.00,72.0,WeatherDisplay:10.37,2013-05-08 05:26:00,
2013-05-08 07:31:00,62.3,57.7,29.98,North,5,3.5,3.5,85,0.00,BKN,,0.00,149.0,WeatherDisplay:10.37,2013-05-08 05:31:00,
2013-05-08 07:36:00,62.4,57.8,29.98,NNW,333,4.6,4.6,85,0.00,BKN,,0.00,116.0,WeatherDisplay:10.37,2013-05-08 05:36:00,
2013-05-08 07:41:00,62.5,57.9,29.98,NW,315,5.8,5.8,85,0.00,SCT,,0.00,283.0,WeatherDisplay:10.37,2013-05-08 05:41:00,
2013-05-08 07:46:00,62.7,57.8,29.98,NNW,333,3.5,3.5,84,0.00,SCT,,0.00,320.0,WeatherDisplay:10.37,2013-05-08 05:46:00,
2013-05-08 07:51:00,63.1,58.2,29.98,NNW,335,4.0,4.0,84,0.00,SCT,,0.00,304.0,WeatherDisplay:10.37,2013-05-08 05:51:00,
2013-05-08 07:56:00,63.4,58.1,29.98,WNW,288,3.5,3.5,83,0.00,SCT,,0.00,339.0,WeatherDisplay:10.37,2013-05-08 05:56:00,
2013-05-08 08:01:00,63.7,58.1,29.98,SW,235,3.5,3.5,82,0.00,FEW,,0.00,350.0,WeatherDisplay:10.37,2013-05-08 06:01:00,
2013-05-08 08:06:00,63.6,57.7,29.98,WSW,243,2.3,2.3,81,0.00,FEW,,0.00,355.0,WeatherDisplay:10.37,2013-05-08 06:06:00,
2013-05-08 08:11:00,63.9,58.0,29.98,SSE,159,1.2,0.0,81,0.00,FEW,,0.00,338.0,WeatherDisplay:10.37,2013-05-08 06:11:00,
2013-05-08 08:16:00,64.5,58.5,29.98,SSE,159,0.0,0.0,81,0.00,FEW,,0.00,401.0,WeatherDisplay:10.37,2013-05-08 06:16:00,
2013-05-08 08:21:00,65.2,58.5,29.98,SSE,159,1.2,1.2,79,0.00,FEW,,0.00,425.0,WeatherDisplay:10.37,2013-05-08 06:21:00,
2013-05-08 08:26:00,66.1,58.7,29.98,East,101,1.2,1.2,77,0.00,FEW,,0.00,352.0,WeatherDisplay:10.37,2013-05-08 06:26:00,
2013-05-08 08:31:00,66.8,59.0,29.98,ESE,103,0.0,0.0,76,0.00,FEW,,0.00,485.0,WeatherDisplay:10.37,2013-05-08 06:31:00,
2013-05-08 08:37:00,67.3,58.3,29.98,SW,223,1.2,1.2,73,0.00,FEW,,0.00,480.0,WeatherDisplay:10.37,2013-05-08 06:37:00,
2013-05-08 08:42:00,66.9,58.0,29.98,South,188,3.5,3.5,73,0.00,FEW,,0.00,487.0,WeatherDisplay:10.37,2013-05-08 06:42:00,
2013-05-08 08:47:00,66.6,58.1,29.98,East,99,2.3,2.3,74,0.00,FEW,,0.00,533.0,WeatherDisplay:10.37,2013-05-08 06:47:00,
2013-05-08 08:52:00,66.9,58.3,29.98,ESE,119,4.6,4.6,74,0.00,FEW,,0.00,587.0,WeatherDisplay:10.37,2013-05-08 06:52:00,
2013-05-08 08:57:00,67.2,59.0,29.98,SW,229,4.0,4.0,75,0.00,FEW,,0.00,633.0,WeatherDisplay:10.37,2013-05-08 06:57:00,
2013-05-08 09:02:00,67.0,58.4,29.98,ESE,109,4.6,4.6,74,0.00,FEW,,0.00,288.0,WeatherDisplay:10.37,2013-05-08 07:02:00,
2013-05-08 09:07:00,66.8,58.6,29.98,SSW,211,4.6,4.6,75,0.00,FEW,,0.00,673.0,WeatherDisplay:10.37,2013-05-08 07:07:00,
2013-05-08 09:12:00,67.2,59.0,29.98,SE,134,4.0,4.0,75,0.00,FEW,,0.00,687.0,WeatherDisplay:10.37,2013-05-08 07:12:00,
2013-05-08 09:17:00,67.5,58.9,29.98,ESE,119,5.8,5.8,74,0.00,FEW,,0.00,673.0,WeatherDisplay:10.37,2013-05-08 07:17:00,
2013-05-08 09:22:00,67.2,58.2,29.97,SSE,161,4.6,4.6,73,0.00,FEW,,0.00,650.0,WeatherDisplay:10.37,2013-05-08 07:22:00,
2013-05-08 09:27:00,67.0,58.4,29.97,SSE,152,3.5,3.5,74,0.00,FEW,,0.00,504.0,WeatherDisplay:10.37,2013-05-08 07:27:00,
2013-05-08 09:32:00,67.1,58.5,29.97,SW,218,3.5,3.5,74,0.00,FEW,,0.00,673.0,WeatherDisplay:10.37,2013-05-08 07:32:00,
2013-05-08 09:37:00,66.8,57.9,29.98,West,280,6.9,6.9,73,0.00,FEW,,0.00,673.0,WeatherDisplay:10.37,2013-05-08 07:37:00,
2013-05-08 09:42:00,66.9,58.3,29.98,SW,225,3.5,3.5,74,0.00,SCT,,0.00,671.0,WeatherDisplay:10.37,2013-05-08 07:42:00,
2013-05-08 09:47:00,66.7,57.8,29.98,SW,217,5.8,5.8,73,0.00,SCT,,0.00,661.0,WeatherDisplay:10.37,2013-05-08 07:47:00,
2013-05-08 09:52:00,66.2,57.3,29.97,SW,216,4.6,4.6,73,0.00,SCT,,0.00,666.0,WeatherDisplay:10.37,2013-05-08 07:52:00,
2013-05-08 09:57:00,66.2,57.7,29.98,SE,144,3.5,3.5,74,0.00,SCT,,0.00,680.0,WeatherDisplay:10.37,2013-05-08 07:57:00,
2013-05-08 10:02:00,66.6,58.1,29.98,West,259,5.0,5.0,74,0.00,SCT,,0.00,680.0,WeatherDisplay:10.37,2013-05-08 08:02:00,
2013-05-08 10:07:00,66.3,56.6,29.98,WSW,241,9.2,9.2,71,0.00,SCT,,0.00,686.0,WeatherDisplay:10.37,2013-05-08 08:07:00,
2013-05-08 10:12:00,66.4,57.9,29.98,SW,227,5.8,5.8,74,0.00,SCT,,0.00,689.0,WeatherDisplay:10.37,2013-05-08 08:12:00,
2013-05-08 10:17:00,66.5,56.8,29.98,SW,232,10.4,10.4,71,0.00,SCT,,0.00,700.0,WeatherDisplay:10.37,2013-05-08 08:17:00,
2013-05-08 10:22:00,66.3,57.0,29.98,WSW,239,8.1,8.1,72,0.00,SCT,,0.00,84.0,WeatherDisplay:10.37,2013-05-08 08:22:00,
2013-05-08 10:27:00,66.0,56.7,29.98,NW,309,8.1,8.1,72,0.00,SCT,,0.00,742.0,WeatherDisplay:10.37,2013-05-08 08:27:00,
2013-05-08 10:32:00,66.2,56.9,29.98,WSW,255,6.9,6.9,72,0.00,SCT,,0.00,758.0,WeatherDisplay:10.37,2013-05-08 08:32:00,
2013-05-08 10:37:00,66.3,57.0,29.98,West,261,12.0,12.0,72,0.00,SCT,,0.00,775.0,WeatherDisplay:10.37,2013-05-08 08:37:00,
2013-05-08 10:42:00,65.9,57.4,29.98,SW,227,11.5,11.5,74,0.00,SCT,,0.00,780.0,WeatherDisplay:10.37,2013-05-08 08:42:00,
2013-05-08 10:47:00,66.2,57.3,29.98,NE,41,11.5,11.5,73,0.00,SCT,,0.00,784.0,WeatherDisplay:10.37,2013-05-08 08:47:00,
2013-05-08 10:52:00,66.5,58.0,29.98,SW,234,8.1,8.1,74,0.00,SCT,,0.00,788.0,WeatherDisplay:10.37,2013-05-08 08:52:00,
2013-05-08 10:57:00,66.6,57.7,29.98,SW,231,5.8,5.8,73,0.00,SCT,,0.00,791.0,WeatherDisplay:10.37,2013-05-08 08:57:00,
2013-05-08 11:02:00,67.0,57.7,29.99,SE,135,5.8,5.8,72,0.00,SCT,,0.00,795.0,WeatherDisplay:10.37,2013-05-08 09:02:00,
2013-05-08 11:07:00,67.4,57.7,29.98,South,186,9.2,9.2,71,0.00,SCT,,0.00,809.0,WeatherDisplay:10.37,2013-05-08 09:07:00,
2013-05-08 11:12:00,67.6,57.9,29.98,NW,321,5.8,5.8,71,0.00,SCT,,0.00,816.0,WeatherDisplay:10.37,2013-05-08 09:12:00,
2013-05-08 11:17:00,67.9,58.1,29.98,South,189,8.1,8.1,71,0.00,SCT,,0.00,823.0,WeatherDisplay:10.37,2013-05-08 09:17:00,
2013-05-08 11:22:00,67.5,57.4,29.98,South,175,10.4,10.4,70,0.00,SCT,,0.00,833.0,WeatherDisplay:10.37,2013-05-08 09:22:00,
2013-05-08 11:27:00,67.3,57.6,29.98,SSW,206,10.4,10.4,71,0.00,SCT,,0.00,842.0,WeatherDisplay:10.37,2013-05-08 09:27:00,
2013-05-08 11:32:00,67.4,57.3,29.98,WSW,243,12.7,12.7,70,0.00,SCT,,0.00,853.0,WeatherDisplay:10.37,2013-05-08 09:32:00,
2013-05-08 11:37:00,67.2,57.5,29.98,SW,232,6.9,6.9,71,0.00,SCT,,0.00,865.0,WeatherDisplay:10.37,2013-05-08 09:37:00,
2013-05-08 11:42:00,67.5,58.2,29.98,WSW,244,11.5,11.5,72,0.00,SCT,,0.00,872.0,WeatherDisplay:10.37,2013-05-08 09:42:00,
2013-05-08 11:47:00,67.2,57.5,29.98,WSW,242,11.5,11.5,71,0.00,SCT,,0.00,879.0,WeatherDisplay:10.37,2013-05-08 09:47:00,
2013-05-08 11:52:00,66.9,57.6,29.98,WSW,246,12.7,12.7,72,0.00,SCT,,0.00,868.0,WeatherDisplay:10.37,2013-05-08 09:52:00,
2013-05-08 11:57:00,66.5,58.0,29.98,WSW,252,12.7,12.7,74,0.00,SCT,,0.00,879.0,WeatherDisplay:10.37,2013-05-08 09:57:00,
2013-05-08 12:02:00,66.2,58.0,29.98,SSW,192,11.5,11.5,75,0.00,SCT,,0.00,886.0,WeatherDisplay:10.37,2013-05-08 10:02:00,
2013-05-08 12:07:00,67.2,59.0,29.98,West,278,11.5,11.5,75,0.00,SCT,,0.00,900.0,WeatherDisplay:10.37,2013-05-08 10:07:00,
2013-05-08 12:12:00,66.8,58.2,29.98,WNW,294,11.5,11.5,74,0.00,SCT,,0.00,916.0,WeatherDisplay:10.37,2013-05-08 10:12:00,
2013-05-08 12:17:00,67.0,58.4,29.98,SW,220,13.8,13.8,74,0.00,SCT,,0.00,918.0,WeatherDisplay:10.37,2013-05-08 10:17:00,
2013-05-08 12:22:00,67.4,58.8,29.98,WSW,239,10.4,10.4,74,0.00,SCT,,0.00,926.0,WeatherDisplay:10.37,2013-05-08 10:22:00,
2013-05-08 12:27:00,67.8,58.8,29.98,West,279,11.5,11.5,73,0.00,SCT,,0.00,930.0,WeatherDisplay:10.37,2013-05-08 10:27:00,
2013-05-08 12:32:00,67.5,58.5,29.98,WSW,240,12.7,12.7,73,0.00,SCT,,0.00,942.0,WeatherDisplay:10.37,2013-05-08 10:32:00,
2013-05-08 12:38:00,67.4,58.4,29.98,WSW,247,15.0,15.0,73,0.00,SCT,,0.00,951.0,WeatherDisplay:10.37,2013-05-08 10:38:00,
2013-05-08 12:43:00,66.8,58.2,29.98,WSW,257,15.0,15.0,74,0.00,SCT,,0.00,969.0,WeatherDisplay:10.37,2013-05-08 10:43:00,
2013-05-08 12:48:00,67.2,58.2,29.97,WSW,248,16.1,16.1,73,0.00,SCT,,0.00,1039.0,WeatherDisplay:10.37,2013-05-08 10:48:00,
2013-05-08 12:53:00,67.4,58.4,29.97,WSW,256,16.1,16.1,73,0.00,SCT,,0.00,448.0,WeatherDisplay:10.37,2013-05-08 10:53:00,
2013-05-08 12:58:00,67.4,58.1,29.97,WSW,243,15.0,15.0,72,0.00,SCT,,0.00,1164.0,WeatherDisplay:10.37,2013-05-08 10:58:00,
2013-05-08 13:03:00,67.7,58.3,29.97,West,271,13.0,13.0,72,0.00,-RA,,0.00,445.0,WeatherDisplay:10.37,2013-05-08 11:03:00,
2013-05-08 13:08:00,67.5,58.5,29.96,SW,230,13.8,13.8,73,0.00,-RA,,0.00,408.0,WeatherDisplay:10.37,2013-05-08 11:08:00,
2013-05-08 13:13:00,67.4,58.8,29.96,WSW,244,8.1,8.1,74,0.00,-RA,,0.00,406.0,WeatherDisplay:10.37,2013-05-08 11:13:00,
2013-05-08 13:18:00,67.3,58.3,29.96,West,259,13.8,13.8,73,0.00,-RA,,0.00,483.0,WeatherDisplay:10.37,2013-05-08 11:18:00,
2013-05-08 13:23:00,66.7,58.1,29.96,West,264,11.5,11.5,74,0.00,-RA,,0.00,374.0,WeatherDisplay:10.37,2013-05-08 11:23:00,
2013-05-08 13:28:00,67.0,58.8,29.96,WSW,255,15.0,15.0,75,0.00,-RA,,0.00,1039.0,WeatherDisplay:10.37,2013-05-08 11:28:00,
2013-05-08 13:33:00,67.4,58.4,29.96,WSW,256,17.3,17.3,73,0.00,-RA,,0.00,983.0,WeatherDisplay:10.37,2013-05-08 11:33:00,
2013-05-08 13:38:00,67.4,59.2,29.96,WSW,238,13.8,13.8,75,0.00,-RA,,0.00,951.0,WeatherDisplay:10.37,2013-05-08 11:38:00,
2013-05-08 13:43:00,67.0,58.4,29.96,WSW,257,15.0,15.0,74,0.00,SCT,,0.00,823.0,WeatherDisplay:10.37,2013-05-08 11:43:00,
2013-05-08 13:48:00,67.4,58.4,29.95,WNW,292,10.4,10.4,73,0.00,SCT,,0.00,933.0,WeatherDisplay:10.37,2013-05-08 11:48:00,
2013-05-08 13:53:00,67.6,58.2,29.95,WSW,243,12.7,12.7,72,0.00,SCT,,0.00,895.0,WeatherDisplay:10.37,2013-05-08 11:53:00,
2013-05-08 13:58:00,68.2,58.8,29.95,WSW,250,12.0,12.0,72,0.00,SCT,,0.00,893.0,WeatherDisplay:10.37,2013-05-08 11:58:00,
2013-05-08 14:03:00,67.9,57.8,29.95,West,267,14.0,14.0,70,0.00,SCT,,0.00,877.0,WeatherDisplay:10.37,2013-05-08 12:03:00,
2013-05-08 14:08:00,68.3,58.1,29.95,West,266,12.7,12.7,70,0.00,SCT,,0.00,858.0,WeatherDisplay:10.37,2013-05-08 12:08:00,
2013-05-08 14:13:00,68.0,57.8,29.94,SW,231,16.1,16.1,70,0.00,SCT,,0.00,847.0,WeatherDisplay:10.37,2013-05-08 12:13:00,
2013-05-08 14:18:00,68.2,58.0,29.94,West,279,11.0,11.0,70,0.00,SCT,,0.00,842.0,WeatherDisplay:10.37,2013-05-08 12:18:00,
2013-05-08 14:23:00,68.8,58.6,29.94,West,274,15.0,15.0,70,0.00,SCT,,0.00,838.0,WeatherDisplay:10.37,2013-05-08 12:23:00,
2013-05-08 14:28:00,68.3,58.1,29.94,NW,304,13.8,13.8,70,0.00,SCT,,0.00,828.0,WeatherDisplay:10.37,2013-05-08 12:28:00,
2013-05-08 14:33:00,68.1,57.5,29.94,WSW,242,13.8,13.8,69,0.00,SCT,,0.00,824.0,WeatherDisplay:10.37,2013-05-08 12:33:00,
2013-05-08 14:38:00,68.0,58.2,29.94,West,265,16.1,16.1,71,0.00,SCT,,0.00,826.0,WeatherDisplay:10.37,2013-05-08 12:38:00,
2013-05-08 14:43:00,67.4,57.7,29.94,West,271,16.1,16.1,71,0.00,SCT,,0.00,821.0,WeatherDisplay:10.37,2013-05-08 12:43:00,
2013-05-08 14:48:00,68.1,57.9,29.94,WSW,248,13.0,13.0,70,0.00,SCT,,0.00,817.0,WeatherDisplay:10.37,2013-05-08 12:48:00,
2013-05-08 14:53:00,67.8,58.4,29.94,WSW,251,17.3,17.3,72,0.00,SCT,,0.00,828.0,WeatherDisplay:10.37,2013-05-08 12:53:00,
2013-05-08 14:58:00,67.7,58.7,29.94,WSW,248,16.1,16.1,73,0.00,SCT,,0.00,814.0,WeatherDisplay:10.37,2013-05-08 12:58:00,
2013-05-08 15:03:00,67.9,58.5,29.94,SW,232,16.1,16.1,72,0.00,FEW,,0.00,782.0,WeatherDisplay:10.37,2013-05-08 13:03:00,
2013-05-08 15:08:00,67.9,58.1,29.94,WSW,241,16.1,16.1,71,0.00,FEW,,0.00,772.0,WeatherDisplay:10.37,2013-05-08 13:08:00,
2013-05-08 15:13:00,67.7,58.7,29.93,WSW,248,16.1,16.1,73,0.00,FEW,,0.00,761.0,WeatherDisplay:10.37,2013-05-08 13:13:00,
2013-05-08 15:18:00,67.5,58.9,29.93,WSW,238,18.4,18.4,74,0.00,FEW,,0.00,751.0,WeatherDisplay:10.37,2013-05-08 13:18:00,
2013-05-08 15:23:00,67.8,59.2,29.93,NNW,333,9.2,9.2,74,0.00,FEW,,0.00,740.0,WeatherDisplay:10.37,2013-05-08 13:23:00,
2013-05-08 15:28:00,68.2,58.8,29.93,WSW,250,12.7,12.7,72,0.00,FEW,,0.00,729.0,WeatherDisplay:10.37,2013-05-08 13:28:00,
2013-05-08 15:33:00,68.4,58.6,29.93,SE,146,15.0,15.0,71,0.00,FEW,,0.00,719.0,WeatherDisplay:10.37,2013-05-08 13:33:00,
2013-05-08 15:38:00,68.1,57.5,29.93,WSW,240,16.1,16.1,69,0.00,FEW,,0.00,708.0,WeatherDisplay:10.37,2013-05-08 13:38:00,
2013-05-08 15:43:00,68.1,59.1,29.93,WNW,288,11.5,11.5,73,0.00,FEW,,0.00,701.0,WeatherDisplay:10.37,2013-05-08 13:43:00,
2013-05-08 15:48:00,68.1,58.3,29.93,WSW,244,18.0,18.0,71,0.00,FEW,,0.00,693.0,WeatherDisplay:10.37,2013-05-08 13:48:00,
2013-05-08 15:53:00,68.0,58.6,29.93,WNW,292,16.1,16.1,72,0.00,FEW,,0.00,682.0,WeatherDisplay:10.37,2013-05-08 13:53:00,
2013-05-08 15:58:00,67.7,58.7,29.93,WSW,243,17.3,17.3,73,0.00,FEW,,0.00,673.0,WeatherDisplay:10.37,2013-05-08 13:58:00,
2013-05-08 16:03:00,68.1,58.7,29.92,WSW,242,11.5,11.5,72,0.00,FEW,,0.00,664.0,WeatherDisplay:10.37,2013-05-08 14:03:00,
2013-05-08 16:08:00,68.4,58.2,29.92,West,273,14.0,14.0,70,0.00,FEW,,0.00,654.0,WeatherDisplay:10.37,2013-05-08 14:08:00,
2013-05-08 16:13:00,68.2,58.4,29.92,WSW,246,12.7,12.7,71,0.00,FEW,,0.00,643.0,WeatherDisplay:10.37,2013-05-08 14:13:00,
2013-05-08 16:18:00,68.1,58.3,29.93,SW,229,13.8,13.8,71,0.00,FEW,,0.00,629.0,WeatherDisplay:10.37,2013-05-08 14:18:00,
2013-05-08 16:23:00,68.3,58.1,29.92,West,274,15.0,15.0,70,0.00,FEW,,0.00,617.0,WeatherDisplay:10.37,2013-05-08 14:23:00,
2013-05-08 16:28:00,68.6,58.4,29.92,West,280,10.4,10.4,70,0.00,FEW,,0.00,606.0,WeatherDisplay:10.37,2013-05-08 14:28:00,
2013-05-08 16:33:00,68.1,56.3,29.92,WNW,288,13.8,13.8,66,0.00,FEW,,0.00,592.0,WeatherDisplay:10.37,2013-05-08 14:33:00,
2013-05-08 16:38:00,67.8,56.9,29.92,West,279,13.8,13.8,68,0.00,FEW,,0.00,584.0,WeatherDisplay:10.37,2013-05-08 14:38:00,
2013-05-08 16:43:00,68.3,56.5,29.92,West,279,11.5,11.5,66,0.00,FEW,,0.00,573.0,WeatherDisplay:10.37,2013-05-08 14:43:00,
2013-05-08 16:48:00,68.7,56.0,29.93,West,272,17.0,17.0,64,0.00,FEW,,0.00,555.0,WeatherDisplay:10.37,2013-05-08 14:48:00,
2013-05-08 16:54:00,68.0,56.2,29.93,West,265,15.0,15.0,66,0.00,FEW,,0.00,543.0,WeatherDisplay:10.37,2013-05-08 14:54:00,
2013-05-08 16:59:00,67.9,55.7,29.93,WSW,244,15.0,15.0,65,0.00,FEW,,0.00,529.0,WeatherDisplay:10.37,2013-05-08 14:59:00,
2013-05-08 17:04:00,67.7,55.1,29.93,WSW,254,15.0,15.0,64,0.00,FEW,,0.00,517.0,WeatherDisplay:10.37,2013-05-08 15:04:00,
2013-05-08 17:09:00,67.7,53.8,29.93,WSW,254,12.7,12.7,61,0.00,FEW,,0.00,503.0,WeatherDisplay:10.37,2013-05-08 15:09:00,
2013-05-08 17:14:00,68.6,55.5,29.93,WNW,282,15.0,15.0,63,0.00,FEW,,0.00,490.0,WeatherDisplay:10.37,2013-05-08 15:14:00,
2013-05-08 17:19:00,68.0,54.0,29.93,WSW,250,13.8,13.8,61,0.00,FEW,,0.00,478.0,WeatherDisplay:10.37,2013-05-08 15:19:00,
2013-05-08 17:24:00,68.4,53.0,29.93,WSW,254,15.0,15.0,58,0.00,FEW,,0.00,462.0,WeatherDisplay:10.37,2013-05-08 15:24:00,
2013-05-08 17:29:00,68.4,52.1,29.92,WSW,237,11.5,11.5,56,0.00,FEW,,0.00,448.0,WeatherDisplay:10.37,2013-05-08 15:29:00,
2013-05-08 17:34:00,68.5,53.1,29.93,West,269,16.1,16.1,58,0.00,FEW,,0.00,450.0,WeatherDisplay:10.37,2013-05-08 15:34:00,
2013-05-08 17:39:00,68.2,56.4,29.93,WNW,303,12.7,12.7,66,0.00,FEW,,0.00,494.0,WeatherDisplay:10.37,2013-05-08 15:39:00,
2013-05-08 17:44:00,68.4,57.4,29.93,West,273,12.7,12.7,68,0.00,FEW,,0.00,508.0,WeatherDisplay:10.37,2013-05-08 15:44:00,
2013-05-08 17:49:00,68.6,56.4,29.92,NNW,331,11.5,11.5,65,0.00,FEW,,0.00,476.0,WeatherDisplay:10.37,2013-05-08 15:49:00,
2013-05-08 17:54:00,68.6,57.2,29.92,WNW,292,12.0,12.0,67,0.00,FEW,,0.00,441.0,WeatherDisplay:10.37,2013-05-08 15:54:00,
2013-05-08 17:59:00,68.2,56.8,29.92,WSW,249,11.5,11.5,67,0.00,FEW,,0.00,443.0,WeatherDisplay:10.37,2013-05-08 15:59:00,
2013-05-08 18:04:00,68.6,57.2,29.93,WNW,294,12.7,12.7,67,0.00,SCT,,0.00,431.0,WeatherDisplay:10.37,2013-05-08 16:04:00,
2013-05-08 18:09:00,68.1,55.5,29.92,WNW,296,13.8,13.8,64,0.00,SCT,,0.00,388.0,WeatherDisplay:10.37,2013-05-08 16:09:00,
2013-05-08 18:14:00,68.4,57.8,29.92,WNW,283,10.4,10.4,69,0.00,SCT,,0.00,334.0,WeatherDisplay:10.37,2013-05-08 16:14:00,
2013-05-08 18:19:00,68.2,57.6,29.92,West,274,9.2,9.2,69,0.00,SCT,,0.00,308.0,WeatherDisplay:10.37,2013-05-08 16:19:00,
2013-05-08 18:24:00,67.9,57.4,29.92,West,260,11.5,11.5,69,0.00,SCT,,0.00,285.0,WeatherDisplay:10.37,2013-05-08 16:24:00,
2013-05-08 18:29:00,67.3,57.6,29.92,WSW,239,12.7,12.7,71,0.00,SCT,,0.00,274.0,WeatherDisplay:10.37,2013-05-08 16:29:00,
2013-05-08 18:34:00,67.4,58.1,29.92,SE,136,8.1,8.1,72,0.00,SCT,,0.00,253.0,WeatherDisplay:10.37,2013-05-08 16:34:00,
2013-05-08 18:39:00,67.3,57.6,29.92,West,278,11.5,11.5,71,0.00,SCT,,0.00,234.0,WeatherDisplay:10.37,2013-05-08 16:39:00,
2013-05-08 18:44:00,67.3,58.0,29.92,WSW,248,10.4,10.4,72,0.00,SCT,,0.00,207.0,WeatherDisplay:10.37,2013-05-08 16:44:00,
2013-05-08 18:49:00,67.3,58.0,29.92,WSW,258,9.2,9.2,72,0.00,SCT,,0.00,183.0,WeatherDisplay:10.37,2013-05-08 16:49:00,
2013-05-08 18:54:00,66.9,58.0,29.92,West,279,8.1,8.1,73,0.00,SCT,,0.00,165.0,WeatherDisplay:10.37,2013-05-08 16:54:00,
2013-05-08 18:59:00,66.9,58.7,29.92,WNW,285,9.2,9.2,75,0.00,SCT,,0.00,148.0,WeatherDisplay:10.37,2013-05-08 16:59:00,
2013-05-08 19:04:00,67.2,58.6,29.92,West,267,8.1,8.1,74,0.00,SCT,,0.00,128.0,WeatherDisplay:10.37,2013-05-08 17:04:00,
2013-05-08 19:09:00,66.9,58.7,29.92,ESE,117,8.1,8.1,75,0.00,SCT,,0.00,116.0,WeatherDisplay:10.37,2013-05-08 17:09:00,
2013-05-08 19:14:00,66.7,58.1,29.92,NW,305,9.2,9.2,74,0.00,SCT,,0.00,98.0,WeatherDisplay:10.37,2013-05-08 17:14:00,
2013-05-08 19:19:00,66.7,58.5,29.92,SW,223,7.0,7.0,75,0.00,SCT,,0.00,81.0,WeatherDisplay:10.37,2013-05-08 17:19:00,
2013-05-08 19:24:00,66.7,58.5,29.92,West,259,8.1,8.1,75,0.00,SCT,,0.00,69.0,WeatherDisplay:10.37,2013-05-08 17:24:00,
2013-05-08 19:29:00,66.7,58.1,29.92,NW,323,5.8,5.8,74,0.00,SCT,,0.00,54.0,WeatherDisplay:10.37,2013-05-08 17:29:00,
2013-05-08 19:34:00,66.7,58.5,29.92,West,273,7.0,7.0,75,0.00,SCT,,0.00,42.0,WeatherDisplay:10.37,2013-05-08 17:34:00,
2013-05-08 19:39:00,66.6,58.4,29.93,SW,236,6.9,6.9,75,0.00,SCT,,0.00,32.0,WeatherDisplay:10.37,2013-05-08 17:39:00,
2013-05-08 19:44:00,66.6,58.4,29.93,WNW,300,5.8,5.8,75,0.00,SCT,,0.00,25.0,WeatherDisplay:10.37,2013-05-08 17:44:00,
2013-05-08 19:49:00,66.4,58.2,29.93,WSW,256,5.8,5.8,75,0.00,SCT,,0.00,16.0,WeatherDisplay:10.37,2013-05-08 17:49:00,
2013-05-08 19:54:00,66.3,58.1,29.93,West,261,8.1,8.1,75,0.00,SCT,,0.00,11.0,WeatherDisplay:10.37,2013-05-08 17:54:00,
2013-05-08 19:59:00,66.2,58.0,29.93,West,280,6.0,6.0,75,0.00,SCT,,0.00,5.0,WeatherDisplay:10.37,2013-05-08 17:59:00,
2013-05-08 20:04:00,66.0,58.2,29.93,West,269,5.8,5.8,76,0.00,SCT,,0.00,0.0,WeatherDisplay:10.37,2013-05-08 18:04:00,
2013-05-08 20:09:00,66.0,58.6,29.94,NW,304,4.6,4.6,77,0.00,SCT,,0.00,0.0,WeatherDisplay:10.37,2013-05-08 18:09:00,
2013-05-08 20:14:00,65.9,58.5,29.94,West,278,4.6,4.6,77,0.00,SCT,,0.00,0.0,WeatherDisplay:10.37,2013-05-08 18:14:00,
2013-05-08 20:19:00,65.7,58.3,29.94,NW,305,5.8,5.8,77,0.00,SCT,,0.00,0.0,WeatherDisplay:10.37,2013-05-08 18:19:00,
2013-05-08 20:24:00,65.6,58.6,29.94,WNW,297,5.8,5.8,78,0.00,SCT,,0.00,0.0,WeatherDisplay:10.37,2013-05-08 18:24:00,
2013-05-08 20:29:00,65.4,58.4,29.94,WNW,302,4.6,4.6,78,0.00,SCT,,0.00,0.0,WeatherDisplay:10.37,2013-05-08 18:29:00,
2013-05-08 20:34:00,65.4,58.4,29.94,NW,323,4.6,4.6,78,0.00,FEW,,0.00,0.0,WeatherDisplay:10.37,2013-05-08 18:34:00,
2013-05-08 20:39:00,65.3,58.3,29.94,West,279,3.5,3.5,78,0.00,FEW,,0.00,0.0,WeatherDisplay:10.37,2013-05-08 18:39:00,
2013-05-08 20:44:00,65.3,58.6,29.94,NW,308,4.0,4.0,79,0.00,FEW,,0.00,0.0,WeatherDisplay:10.37,2013-05-08 18:44:00,
2013-05-08 20:49:00,65.2,58.5,29.94,NW,308,4.0,4.0,79,0.00,FEW,,0.00,0.0,WeatherDisplay:10.37,2013-05-08 18:49:00,
2013-05-08 20:54:00,65.2,58.5,29.94,NW,313,3.5,3.5,79,0.00,FEW,,0.00,0.0,WeatherDisplay:10.37,2013-05-08 18:54:00,
2013-05-08 20:59:00,65.1,58.4,29.95,NW,315,4.0,4.0,79,0.00,FEW,,0.00,0.0,WeatherDisplay:10.37,2013-05-08 18:59:00,
2013-05-08 21:04:00,65.1,58.4,29.95,NW,305,2.3,2.3,79,0.00,FEW,,0.00,0.0,WeatherDisplay:10.37,2013-05-08 19:04:00,
2013-05-08 21:09:00,65.0,58.3,29.95,NNW,331,1.2,1.2,79,0.00,FEW,,0.00,0.0,WeatherDisplay:10.37,2013-05-08 19:09:00,
2013-05-08 21:14:00,65.0,58.3,29.95,WNW,303,3.0,3.0,79,0.00,FEW,,0.00,0.0,WeatherDisplay:10.37,2013-05-08 19:14:00,
2013-05-08 21:19:00,64.9,58.2,29.95,NW,309,3.5,3.5,79,0.00,FEW,,0.00,0.0,WeatherDisplay:10.37,2013-05-08 19:19:00,
2013-05-08 21:24:00,64.9,58.2,29.95,WNW,298,3.5,3.5,79,0.00,FEW,,0.00,0.0,WeatherDisplay:10.37,2013-05-08 19:24:00,
2013-05-08 21:29:00,64.8,58.1,29.95,WNW,301,2.3,2.3,79,0.00,FEW,,0.00,0.0,WeatherDisplay:10.37,2013-05-08 19:29:00,
2013-05-08 21:34:00,64.8,58.1,29.96,WNW,286,2.3,2.3,79,0.00,FEW,,0.00,0.0,WeatherDisplay:10.37,2013-05-08 19:34:00,
2013-05-08 21:39:00,64.8,58.1,29.96,WNW,286,0.0,0.0,79,0.00,FEW,,0.00,0.0,WeatherDisplay:10.37,2013-05-08 19:39:00,
2013-05-08 21:44:00,64.8,58.1,29.96,WNW,286,0.0,0.0,79,0.00,FEW,,0.00,0.0,WeatherDisplay:10.37,2013-05-08 19:44:00,
2013-05-08 21:49:00,64.7,58.0,29.96,WNW,286,0.0,0.0,79,0.00,FEW,,0.00,0.0,WeatherDisplay:10.37,2013-05-08 19:49:00,
2013-05-08 21:54:00,64.6,57.9,29.96,NNW,329,1.2,1.2,79,0.00,FEW,,0.00,0.0,WeatherDisplay:10.37,2013-05-08 19:54:00,
2013-05-08 21:59:00,64.5,57.8,29.96,NW,323,0.0,1.0,79,0.00,FEW,,0.00,0.0,WeatherDisplay:10.37,2013-05-08 19:59:00,
2013-05-08 22:04:00,64.4,57.7,29.96,NNW,336,3.5,3.5,79,0.00,FEW,,0.00,0.0,WeatherDisplay:10.37,2013-05-08 20:04:00,
2013-05-08 22:09:00,64.3,57.6,29.97,NW,322,2.0,4.0,79,0.00,FEW,,0.00,0.0,WeatherDisplay:10.37,2013-05-08 20:09:00,
2013-05-08 22:14:00,64.1,57.5,29.97,NW,319,2.0,4.0,79,0.00,FEW,,0.00,0.0,WeatherDisplay:10.37,2013-05-08 20:14:00,
2013-05-08 22:19:00,64.1,57.8,29.97,NW,313,3.0,5.0,80,0.00,FEW,,0.00,0.0,WeatherDisplay:10.37,2013-05-08 20:19:00,
2013-05-08 22:24:00,64.1,57.8,29.97,NW,316,5.0,5.0,80,0.00,FEW,,0.00,0.0,WeatherDisplay:10.37,2013-05-08 20:24:00,
2013-05-08 22:29:00,64.2,57.9,29.97,NW,324,4.6,4.6,80,0.00,FEW,,0.00,0.0,WeatherDisplay:10.37,2013-05-08 20:29:00,
2013-05-08 22:34:00,64.3,58.0,29.98,NNW,327,5.8,5.8,80,0.00,FEW,,0.00,0.0,WeatherDisplay:10.37,2013-05-08 20:34:00,
2013-05-08 22:39:00,64.3,58.0,29.98,NNW,329,6.0,6.0,80,0.00,FEW,,0.00,0.0,WeatherDisplay:10.37,2013-05-08 20:39:00,
2013-05-08 22:44:00,64.2,57.9,29.97,NW,325,5.0,6.0,80,0.00,FEW,,0.00,0.0,WeatherDisplay:10.37,2013-05-08 20:44:00,
2013-05-08 22:49:00,64.2,57.9,29.97,NNW,340,4.6,4.6,80,0.00,FEW,,0.00,0.0,WeatherDisplay:10.37,2013-05-08 20:49:00,
2013-05-08 22:54:00,64.1,57.8,29.97,NNW,330,2.0,4.0,80,0.00,FEW,,0.00,0.0,WeatherDisplay:10.37,2013-05-08 20:54:00,
2013-05-08 22:59:00,64.1,57.8,29.97,NNW,330,3.5,3.5,80,0.00,FEW,,0.00,0.0,WeatherDisplay:10.37,2013-05-08 20:59:00,
2013-05-08 23:04:00,64.2,57.9,29.97,NNW,331,0.0,0.4,80,0.00,FEW,,0.00,0.0,WeatherDisplay:10.37,2013-05-08 21:04:00,
2013-05-08 23:09:00,64.1,57.8,29.97,NNW,331,0.0,0.0,80,0.00,FEW,,0.00,0.0,WeatherDisplay:10.37,2013-05-08 21:09:00,
2013-05-08 23:14:00,64.0,57.7,29.98,NNW,331,0.0,1.0,80,0.00,FEW,,0.00,0.0,WeatherDisplay:10.37,2013-05-08 21:14:00,
2013-05-08 23:19:00,63.9,57.6,29.97,NNW,331,1.2,1.2,80,0.00,FEW,,0.00,0.0,WeatherDisplay:10.37,2013-05-08 21:19:00,
2013-05-08 23:24:00,63.9,57.6,29.97,NNW,331,0.0,0.0,80,0.00,FEW,,0.00,0.0,WeatherDisplay:10.37,2013-05-08 21:24:00,
2013-05-08 23:29:00,63.8,57.5,29.97,NNW,331,0.0,0.0,80,0.00,FEW,,0.00,0.0,WeatherDisplay:10.37,2013-05-08 21:29:00,
2013-05-08 23:34:00,63.7,57.4,29.97,NNW,331,0.0,0.0,80,0.00,FEW,,0.00,0.0,WeatherDisplay:10.37,2013-05-08 21:34:00,
2013-05-08 23:39:00,63.6,57.3,29.97,NNW,331,0.0,0.0,80,0.00,FEW,,0.00,0.0,WeatherDisplay:10.37,2013-05-08 21:39:00,
2013-05-08 23:44:00,63.5,56.9,29.98,NNW,331,0.0,1.0,79,0.00,FEW,,0.00,0.0,WeatherDisplay:10.37,2013-05-08 21:44:00,
2013-05-08 23:49:00,63.3,56.7,29.98,NNW,345,1.0,3.0,79,0.00,FEW,,0.00,0.0,WeatherDisplay:10.37,2013-05-08 21:49:00,
2013-05-08 23:54:00,63.3,56.7,29.97,North,9,0.0,0.0,79,0.00,FEW,,0.00,0.0,WeatherDisplay:10.37,2013-05-08 21:54:00,
2013-05-08 23:59:00,63.3,56.7,29.97,North,9,1.0,1.0,79,0.00,FEW,,0.00,0.0,WeatherDisplay:10.37,2013-05-08 21:59:00,